E1521 Weather Reports


Display with metric or nautical units.
time (UTC)temp
F
wind
direction
speed
MPH
gust
MPH
rain 1hr
in
rain 24hr
in
rain mn
in
humidity
%
barometer
mb
20260507185555 89 296 1.0 3.0 0.00 0.00 0.00 13 1013.0
20260507184515 88 133 1.0 5.0 0.00 0.00 0.00 14 1013.1
20260507183515 86 100 0.0 5.0 0.00 0.00 0.00 14 1013.2
20260507182556 86 330 1.0 7.0 0.00 0.00 0.00 15 1013.3
20260507181515 85 326 0.0 4.0 0.00 0.00 0.00 16 1013.4
20260507180535 85 338 1.0 6.0 0.00 0.00 0.00 16 1013.5
20260507175516 85 311 0.0 4.0 0.00 0.00 0.00 17 1013.6
20260507174535 85 331 1.0 5.0 0.00 0.00 0.00 18 1013.7
20260507173515 85 324 0.0 2.0 0.00 0.00 0.00 17 1013.9
20260507172516 85 130 1.0 4.0 0.00 0.00 0.00 18 1014.0
20260507171517 83 352 0.0 1.0 0.00 0.00 0.00 19 1014.0
20260507170517 83 334 0.0 2.0 0.00 0.00 0.00 20 1014.1
20260507165517 83 295 0.0 3.0 0.00 0.00 0.00 21 1014.1
20260507164517 82 339 0.0 1.0 0.00 0.00 0.00 22 1014.2
20260507163517 82 134 0.0 3.0 0.00 0.00 0.00 23 1014.3
20260507162517 80 156 0.0 2.0 0.00 0.00 0.00 25 1014.3
20260507161515 80 125 0.0 1.0 0.00 0.00 0.00 25 1014.4
20260507160517 78 161 0.0 2.0 0.00 0.00 0.00 26 1014.5
20260507155537 78 132 0.0 2.0 0.00 0.00 0.00 26 1014.5
20260507154516 77 132 0.0 2.0 0.00 0.00 0.00 26 1014.6
20260507153517 76 159 0.0 2.0 0.00 0.00 0.00 27 1014.7
20260507152517 74 0.0 3.0 0.00 0.00 0.00 29 1014.6
20260507151518 73 125 1.0 3.0 0.00 0.00 0.00 29 1014.6
20260507150517 72 139 1.0 3.0 0.00 0.00 0.00 31 1014.6
20260507145517 70 143 1.0 3.0 0.00 0.00 0.00 32 1014.7
20260507144517 69 140 1.0 2.0 0.00 0.00 0.00 33 1014.7
20260507143536 68 130 1.0 3.0 0.00 0.00 0.00 34 1014.7
20260507142517 67 135 1.0 3.0 0.00 0.00 0.00 35 1014.7
20260507141517 65 128 1.0 3.0 0.00 0.00 0.00 36 1014.6
20260507140519 64 129 1.0 4.0 0.00 0.00 0.00 37 1014.6
20260507135517 63 132 1.0 3.0 0.00 0.00 0.00 38 1014.5
20260507134517 62 127 1.0 4.0 0.00 0.00 0.00 39 1014.3
20260507133517 61 132 2.0 5.0 0.00 0.00 0.00 40 1014.1
20260507132516 61 137 1.0 4.0 0.00 0.00 0.00 41 1014.0
20260507131517 60 131 2.0 4.0 0.00 0.00 0.00 42 1013.9
20260507130537 59 133 1.0 4.0 0.00 0.00 0.00 43 1013.8
20260507125516 58 135 0.0 2.0 0.00 0.00 0.00 43 1013.7
20260507124516 58 130 1.0 4.0 0.00 0.00 0.00 43 1013.8
20260507123516 59 131 0.0 3.0 0.00 0.00 0.00 44 1013.7
20260507122536 59 128 1.0 3.0 0.00 0.00 0.00 43 1013.7
20260507121536 59 133 1.0 4.0 0.00 0.00 0.00 43 1013.6
20260507120516 59 135 0.0 1.0 0.00 0.00 0.00 43 1013.7
20260507115536 59 128 1.0 3.0 0.00 0.00 0.00 42 1013.8
20260507114516 60 128 0.0 2.0 0.00 0.00 0.00 43 1013.7
20260507113517 59 133 1.0 2.0 0.00 0.00 0.00 43 1013.7
20260507112519 59 0.0 0.0 0.00 0.00 0.00 44 1013.7
20260507111516 59 145 0.0 4.0 0.00 0.00 0.00 44 1013.7
20260507110516 59 133 0.0 2.0 0.00 0.00 0.00 49 1013.7
20260507105516 60 9 0.0 1.0 0.00 0.00 0.00 49 1013.8
20260507104516 60 0.0 0.0 0.00 0.00 0.00 50 1013.8
20260507103537 60 0.0 0.0 0.00 0.00 0.00 52 1013.8
20260507102517 59 0.0 0.0 0.00 0.00 0.00 51 1013.9
20260507101517 60 0.0 0.0 0.00 0.00 0.00 51 1014.0
20260507100537 60 0.0 0.0 0.00 0.00 0.00 51 1014.1
20260507095516 60 0.0 0.0 0.00 0.00 0.00 51 1014.1
20260507094516 60 0.0 0.0 0.00 0.00 0.00 51 1014.1
20260507093516 61 0.0 0.0 0.00 0.00 0.00 51 1014.2
20260507092517 61 0.0 0.0 0.00 0.00 0.00 49 1014.3
20260507091516 61 0.0 0.0 0.00 0.00 0.00 50 1014.3
20260507090516 61 0.0 0.0 0.00 0.00 0.00 49 1014.4
20260507085517 61 0.0 0.0 0.00 0.00 0.00 48 1014.4
20260507084517 62 0.0 0.0 0.00 0.00 0.00 48 1014.5
20260507083516 62 0.0 0.0 0.00 0.00 0.00 46 1014.6
20260507082516 62 0.0 0.0 0.00 0.00 0.00 45 1014.6
20260507081517 63 0.0 0.0 0.00 0.00 0.00 44 1014.7
20260507080516 63 0.0 0.0 0.00 0.00 0.00 44 1014.7
20260507075537 64 0.0 0.0 0.00 0.00 0.00 42 1014.7
20260507074516 64 0.0 0.0 0.00 0.00 0.00 45 1014.7
20260507073536 65 0.0 0.0 0.00 0.00 0.00 47 1014.7
20260507072516 65 0.0 0.0 0.00 0.00 0.00 41 1014.7
20260507071517 67 0.0 0.0 0.00 0.00 0.00 40 1014.7
20260507070517 67 9 0.0 1.0 0.00 0.00 0.00 37 1014.7
20260507065516 67 283 0.0 1.0 0.00 0.00 0.00 40 1014.8
20260507064516 67 0.0 0.0 0.00 0.00 0.00 38 1014.8
20260507063516 67 0.0 0.0 0.00 0.00 0.00 40 1014.7
20260507062537 68 0.0 0.0 0.00 0.00 0.00 38 1014.7
20260507061558 68 0.0 0.0 0.00 0.00 0.00 37 1014.6
20260507060519 68 0.0 0.0 0.00 0.00 0.00 36 1014.6
20260507055516 68 0.0 0.0 0.00 0.00 0.00 34 1014.6
20260507054515 68 0.0 0.0 0.00 0.00 0.00 35 1014.5
20260507053517 69 0.0 0.0 0.00 0.00 0.00 34 1014.6
20260507052519 69 0.0 0.0 0.00 0.00 0.00 34 1014.5
20260507051517 69 0.0 0.0 0.00 0.00 0.00 34 1014.5
20260507050516 69 0.0 0.0 0.00 0.00 0.00 35 1014.5
20260507045517 69 0.0 0.0 0.00 0.00 0.00 36 1014.5
20260507044517 69 0.0 0.0 0.00 0.00 0.00 34 1014.4
20260507043517 70 0.0 0.0 0.00 0.00 0.00 32 1014.3
20260507042518 71 0.0 0.0 0.00 0.00 0.00 32 1014.2
20260507041515 72 0.0 0.0 0.00 0.00 0.00 30 1014.2
20260507040516 73 0.0 0.0 0.00 0.00 0.00 28 1014.1
20260507035516 74 0.0 0.0 0.00 0.00 0.00 27 1013.9
20260507034535 75 0.0 0.0 0.00 0.00 0.00 27 1013.9
20260507033535 76 0.0 1.0 0.00 0.00 0.00 25 1013.8
20260507032516 76 283 0.0 1.0 0.00 0.00 0.00 25 1013.7
20260507031515 77 0.0 1.0 0.00 0.00 0.00 24 1013.5
20260507030515 77 0.0 0.0 0.00 0.00 0.00 24 1013.4
20260507025515 78 0.0 1.0 0.00 0.00 0.00 23 1013.2
20260507024518 78 281 0.0 1.0 0.00 0.00 0.00 23 1013.1
20260507023521 78 0.0 0.0 0.00 0.00 0.00 23 1013.0
20260507022516 79 0.0 1.0 0.00 0.00 0.00 22 1013.0
20260507021517 79 269 1.0 3.0 0.00 0.00 0.00 22 1012.8
20260507020516 80 279 0.0 1.0 0.00 0.00 0.00 21 1012.8
20260507015536 81 276 0.0 4.0 0.00 0.00 0.00 21 1012.7
20260507014516 82 299 1.0 3.0 0.00 0.00 0.00 20 1012.8
20260507013538 82 283 1.0 4.0 0.00 0.00 0.00 20 1012.8
20260507012515 82 285 1.0 4.0 0.00 0.00 0.00 20 1012.7
20260507011517 83 292 3.0 5.0 0.00 0.00 0.00 20 1012.7
20260507010555 83 275 0.0 2.0 0.00 0.00 0.00 20 1012.8
20260507005516 83 276 1.0 6.0 0.00 0.00 0.00 20 1012.7
20260507004515 83 308 0.0 6.0 0.00 0.00 0.00 20 1012.7
20260507003515 84 303 2.0 6.0 0.00 0.00 0.00 20 1012.7
20260507002515 83 324 2.0 4.0 0.00 0.00 0.00 20 1012.6
20260507001535 83 340 1.0 6.0 0.00 0.00 0.00 20 1012.6
20260507000536 83 321 3.0 8.0 0.00 0.00 0.00 20 1012.7
20260506235515 83 291 5.0 9.0 0.00 0.00 0.00 20 1012.6
20260506234535 82 308 1.0 6.0 0.00 0.00 0.00 20 1012.6
20260506233516 82 280 1.0 7.0 0.00 0.00 0.00 20 1012.7
20260506232535 83 270 2.0 6.0 0.00 0.00 0.00 21 1012.8
20260506231535 82 310 3.0 9.0 0.00 0.00 0.00 21 1012.9
20260506230536 83 318 2.0 5.0 0.00 0.00 0.00 20 1013.0
20260506225515 82 58 1.0 7.0 0.00 0.00 0.00 20 1013.1
20260506224535 82 4 1.0 9.0 0.00 0.00 0.00 19 1013.2
20260506223516 82 314 3.0 8.0 0.00 0.00 0.00 20 1013.4
20260506222535 82 286 5.0 10.0 0.00 0.00 0.00 20 1013.5
20260506221516 81 303 1.0 6.0 0.00 0.00 0.00 22 1013.6
20260506220515 81 306 1.0 7.0 0.00 0.00 0.00 22 1013.7
20260506215516 81 302 5.0 11.0 0.00 0.00 0.00 22 1013.8
20260506214515 81 255 3.0 7.0 0.00 0.00 0.00 22 1014.0
20260506213516 81 285 3.0 11.0 0.00 0.00 0.00 22 1014.2
20260506212516 82 287 3.0 7.0 0.00 0.00 0.00 22 1014.4
20260506211515 80 256 3.0 10.0 0.00 0.00 0.00 23 1014.5
20260506210515 80 105 1.0 8.0 0.00 0.00 0.00 23 1014.6
20260506205517 80 300 3.0 10.0 0.00 0.00 0.00 24 1014.7
20260506204515 79 268 1.0 7.0 0.00 0.00 0.00 24 1014.9
20260506203515 79 238 2.0 6.0 0.00 0.00 0.00 24 1015.0
20260506202536 79 329 2.0 9.0 0.00 0.00 0.00 25 1015.1
20260506201515 79 327 4.0 12.0 0.00 0.00 0.00 24 1015.1
20260506200615 78 36 0.0 6.0 0.00 0.00 0.00 25 1015.2
20260506195515 78 302 3.0 10.0 0.00 0.00 0.00 25 1015.3
20260506194515 79 314 4.0 9.0 0.00 0.00 0.00 25 1015.5
20260506193515 78 63 2.0 7.0 0.00 0.00 0.00 25 1015.5
20260506192536 78 310 3.0 7.0 0.00 0.00 0.00 25 1015.7
20260506191515 77 283 1.0 8.0 0.00 0.00 0.00 25 1015.9
20260506190514 77 78 1.0 7.0 0.00 0.00 0.00 26 1015.9